CW9803 Weather Reports


time (UTC)temp
C
wind
direction
speed
KPH
gust
KPH
rain 1hr
cm
rain 24hr
cm
rain mn
cm
humidity
%
barometer
mb
20260901184101 22 129 4.8 9.7 0.00 0.00 0.00 42 1007.9
20260901183556 22 156 6.4 11.3 0.00 0.00 0.00 41 1008.0
20260901183052 22 190 14.5 24.1 0.00 0.00 0.00 41 1007.8
20260901182548 19 163 4.8 6.4 0.00 0.00 0.00 44 1007.9
20260901182048 18 122 0.0 1.6 0.00 0.00 0.00 42 1008.0
20260901181547 18 144 0.0 0.0 0.00 0.00 0.00 42 1007.8
20260901181046 18 151 0.0 0.0 0.00 0.00 0.00 43 1008.0
20260901180545 18 141 0.0 0.0 0.00 0.00 0.00 44 1007.7
20260901180040 17 121 0.0 0.0 0.00 0.00 0.00 42 1007.3
20260901175539 17 124 0.0 0.0 0.00 0.00 0.00 42 1007.4
20260901175034 17 96 0.0 1.6 0.00 0.00 0.00 42 1007.3
20260901174530 17 141 1.6 1.6 0.00 0.00 0.00 42 1007.4
20260901174026 17 261 6.4 6.4 0.00 0.00 0.00 43 1007.2
20260901173526 17 164 0.0 1.6 0.00 0.00 0.00 43 1007.0
20260901173022 17 91 0.0 1.6 0.00 0.00 0.00 46 1006.9
20260901172517 17 98 1.6 1.6 0.00 0.00 0.00 46 1007.3
20260901172015 17 74 4.8 4.8 0.00 0.00 0.00 42 1007.1
20260901171515 17 139 0.0 0.0 0.00 0.00 0.00 42 1007.0
20260901171014 16 135 0.0 0.0 0.00 0.00 0.00 43 1007.2
20260901170508 16 143 0.0 0.0 0.00 0.00 0.00 43 1007.3
20260901170009 16 203 3.2 3.2 0.00 0.00 0.00 44 1007.1
20260901165503 16 116 1.6 1.6 0.00 0.00 0.00 41 1006.6
20260901164958 16 134 0.0 0.0 0.00 0.00 0.00 43 1006.6
20260901164454 16 130 0.0 0.0 0.00 0.00 0.00 44 1006.6
20260901163948 16 54 3.2 3.2 0.00 0.00 0.00 44 1006.6
20260901163444 16 123 0.0 0.0 0.00 0.00 0.00 46 1006.8
20260901162942 16 145 0.0 0.0 0.00 0.00 0.00 46 1007.0
20260901162438 15 139 0.0 0.0 0.00 0.00 0.00 46 1007.0
20260901161931 15 88 1.6 1.6 0.00 0.00 0.00 48 1007.3
20260901161431 15 70 3.2 3.2 0.00 0.00 0.00 47 1007.0
20260901160921 15 93 1.6 1.6 0.00 0.00 0.00 47 1007.2
20260901160416 14 42 1.6 3.2 0.00 0.00 0.00 47 1007.5
20260901155915 14 105 1.6 1.6 0.00 0.00 0.00 47 1007.4
20260901155410 14 242 3.2 4.8 0.00 0.00 0.00 49 1007.3
20260901154907 14 124 0.0 1.6 0.00 0.00 0.00 49 1007.5
20260901154406 13 144 0.0 0.0 0.00 0.00 0.00 51 1007.5
20260901153901 12 122 0.0 0.0 0.00 0.00 0.00 52 1007.8
20260901153400 12 163 0.0 0.0 0.00 0.00 0.00 54 1007.5
20260901152859 12 115 0.0 0.0 0.00 0.00 0.00 56 1007.4
20260901152354 11 194 1.6 1.6 0.00 0.00 0.00 57 1007.5
20260901151844 11 165 1.6 1.6 0.00 0.00 0.00 56 1007.3
20260901151343 12 148 1.6 3.2 0.00 0.00 0.00 56 1007.0
20260901150843 12 144 1.6 1.6 0.00 0.00 0.00 54 1007.2
20260901150340 11 140 1.6 1.6 0.00 0.00 0.00 56 1007.3
20260901145838 11 137 0.0 0.0 0.00 0.00 0.00 54 1007.0
20260901145333 11 137 0.0 0.0 0.00 0.00 0.00 56 1006.7
20260901144828 10 145 0.0 0.0 0.00 0.00 0.00 61 1006.7
20260901144323 10 136 0.0 0.0 0.00 0.00 0.00 61 1006.8
20260901143819 10 112 1.6 1.6 0.00 0.00 0.00 63 1006.8
20260901143316 10 134 0.0 0.0 0.00 0.00 0.00 63 1006.6
20260901142812 10 142 0.0 0.0 0.00 0.00 0.00 62 1006.6
20260901142310 10 122 0.0 1.6 0.00 0.00 0.00 61 1006.5
20260901141806 10 128 0.0 0.0 0.00 0.00 0.00 59 1006.0
20260901141301 10 122 0.0 0.0 0.00 0.00 0.00 60 1006.2
20260901140759 9 127 0.0 0.0 0.00 0.00 0.00 61 1006.4
20260901140258 9 126 0.0 0.0 0.00 0.00 0.00 61 1006.2
20260901135753 9 114 0.0 0.0 0.00 0.00 0.00 61 1006.0
20260901135253 9 140 0.0 0.0 0.00 0.00 0.00 62 1006.2
20260901134749 9 191 3.2 3.2 0.00 0.00 0.00 62 1006.4
20260901134248 8 172 0.0 1.6 0.00 0.00 0.00 64 1006.4
20260901133743 8 126 0.0 0.0 0.00 0.00 0.00 64 1006.4
20260901133242 8 124 0.0 0.0 0.00 0.00 0.00 65 1006.2
20260901132740 8 130 0.0 0.0 0.00 0.00 0.00 65 1006.4
20260901132236 8 138 0.0 0.0 0.00 0.00 0.00 65 1006.2
20260901131730 8 132 0.0 0.0 0.00 0.00 0.00 66 1006.4
20260901131230 8 108 1.6 1.6 0.00 0.00 0.00 66 1006.5
20260901130725 8 122 0.0 0.0 0.00 0.00 0.00 66 1006.2
20260901130224 8 105 1.6 3.2 0.00 0.00 0.00 65 1006.2
20260901125722 8 116 0.0 0.0 0.00 0.00 0.00 66 1006.5
20260901125218 8 121 0.0 0.0 0.00 0.00 0.00 66 1006.4
20260901124712 8 160 0.0 0.0 0.00 0.00 0.00 66 1006.4
20260901124206 8 160 0.0 0.0 0.00 0.00 0.00 66 1006.5
20260901123701 8 160 0.0 0.0 0.00 0.00 0.00 67 1006.4
20260901123155 8 160 0.0 0.0 0.00 0.00 0.00 67 1006.5
20260901122653 8 161 0.0 0.0 0.00 0.00 0.00 67 1006.4
20260901122148 7 163 0.0 1.6 0.00 0.00 0.00 68 1006.4
20260901121643 7 154 0.0 0.0 0.00 0.00 0.00 67 1006.6
20260901121138 7 153 0.0 1.6 0.00 0.00 0.00 68 1006.5
20260901120633 8 154 1.6 1.6 0.00 0.00 0.00 68 1006.2
20260901120128 8 154 1.6 1.6 0.00 0.00 0.00 69 1006.1
20260901115623 8 153 1.6 1.6 0.00 0.00 0.00 69 1006.1
20260901115119 8 119 0.0 0.0 0.00 0.00 0.00 68 1006.5
20260901114615 8 119 0.0 0.0 0.00 0.00 0.00 66 1006.4
20260901114109 8 117 0.0 0.0 0.00 0.00 0.00 64 1006.5
20260901113607 8 131 0.0 0.0 0.00 0.00 0.00 63 1006.5
20260901113058 8 140 0.0 1.6 0.00 0.00 0.00 62 1006.4
20260901112557 8 132 0.0 0.0 0.00 0.00 0.00 62 1006.5
20260901112052 8 145 0.0 0.0 0.00 0.00 0.00 61 1006.5
20260901111550 8 135 0.0 1.6 0.00 0.00 0.00 60 1006.6
20260901111049 8 135 0.0 0.0 0.00 0.00 0.00 59 1006.5
20260901110545 8 132 0.0 0.0 0.00 0.00 0.00 61 1006.5
20260901110040 8 105 0.0 1.6 0.00 0.00 0.00 60 1006.5
20260901105537 8 124 0.0 0.0 0.00 0.00 0.00 60 1006.8
20260901105030 8 125 0.0 0.0 0.00 0.00 0.00 60 1006.7
20260901104527 8 125 0.0 0.0 0.00 0.00 0.00 60 1006.5
20260901104022 8 136 0.0 0.0 0.00 0.00 0.00 61 1006.8
20260901103522 8 144 0.0 0.0 0.00 0.00 0.00 61 1006.9
20260901103017 8 147 0.0 0.0 0.00 0.00 0.00 61 1007.0
20260901102512 8 117 0.0 0.0 0.00 0.00 0.00 62 1006.9
20260901102006 8 116 0.0 0.0 0.00 0.00 0.00 63 1006.9
20260901101501 8 115 0.0 0.0 0.00 0.00 0.00 62 1007.1
20260901100956 8 115 0.0 0.0 0.00 0.00 0.00 62 1006.9
20260901100451 8 115 0.0 0.0 0.00 0.00 0.00 62 1007.0
20260901095949 8 116 0.0 0.0 0.00 0.00 0.00 63 1006.8
20260901095449 8 115 0.0 0.0 0.00 0.00 0.00 66 1007.0
20260901094941 8 115 0.0 0.0 0.00 0.00 0.00 66 1006.8
20260901094441 8 116 0.0 0.0 0.00 0.00 0.00 66 1007.1
20260901093935 8 116 0.0 0.0 0.00 0.00 0.00 66 1007.0
20260901093430 8 116 0.0 0.0 0.00 0.00 0.00 64 1006.9
20260901092925 8 115 0.0 0.0 0.00 0.00 0.00 62 1006.9
20260901092421 8 115 0.0 0.0 0.00 0.00 0.00 61 1007.2
20260901091917 8 115 0.0 0.0 0.00 0.00 0.00 59 1007.2
20260901091416 9 115 0.0 0.0 0.00 0.00 0.00 57 1007.1
20260901090912 9 117 0.0 0.0 0.00 0.00 0.00 59 1007.1
20260901090411 9 116 0.0 0.0 0.00 0.00 0.00 57 1006.9
20260901085907 9 116 0.0 0.0 0.00 0.00 0.00 57 1007.0
20260901085403 9 115 0.0 0.0 0.00 0.00 0.00 56 1006.8
20260901084859 10 130 0.0 0.0 0.00 0.00 0.00 56 1006.9
20260901084354 10 130 0.0 0.0 0.00 0.00 0.00 57 1007.2
20260901083849 10 132 0.0 0.0 0.00 0.00 0.00 57 1007.1
20260901083344 10 132 0.0 0.0 0.00 0.00 0.00 59 1007.2
20260901082842 10 132 0.0 0.0 0.00 0.00 0.00 59 1007.1
20260901082338 10 132 0.0 0.0 0.00 0.00 0.00 56 1007.2
20260901081833 10 132 0.0 0.0 0.00 0.00 0.00 57 1007.0
20260901081328 10 130 0.0 0.0 0.00 0.00 0.00 57 1007.2
20260901080828 10 131 0.0 0.0 0.00 0.00 0.00 57 1007.2
20260901080322 10 131 0.0 0.0 0.00 0.00 0.00 55 1007.4
20260901075816 10 129 0.0 0.0 0.00 0.00 0.00 54 1007.1
20260901075311 11 126 0.0 0.0 0.00 0.00 0.00 55 1007.3
20260901074807 11 127 0.0 0.0 0.00 0.00 0.00 53 1007.3
20260901074301 11 133 0.0 0.0 0.00 0.00 0.00 52 1007.1
20260901073757 11 135 0.0 0.0 0.00 0.00 0.00 54 1007.2
20260901073252 11 136 0.0 0.0 0.00 0.00 0.00 54 1007.3
20260901072748 11 137 0.0 0.0 0.00 0.00 0.00 54 1007.1
20260901072242 11 136 0.0 0.0 0.00 0.00 0.00 54 1007.1
20260901071736 11 150 0.0 0.0 0.00 0.00 0.00 54 1007.1
20260901071231 11 151 0.0 0.0 0.00 0.00 0.00 56 1007.1
20260901070730 11 140 0.0 0.0 0.00 0.00 0.00 56 1007.2
20260901070225 11 140 0.0 0.0 0.00 0.00 0.00 56 1007.2
20260901065725 11 126 0.0 0.0 0.00 0.00 0.00 51 1007.2
20260901065220 11 123 0.0 0.0 0.00 0.00 0.00 50 1007.0
20260901064716 11 144 0.0 0.0 0.00 0.00 0.00 52 1007.2
20260901064212 11 129 0.0 0.0 0.00 0.00 0.00 51 1007.2
20260901063709 12 124 0.0 0.0 0.00 0.00 0.00 51 1007.3
20260901063205 12 124 0.0 0.0 0.00 0.00 0.00 52 1007.2
20260901062700 12 124 0.0 0.0 0.00 0.00 0.00 52 1007.2
20260901062156 12 152 1.6 1.6 0.00 0.00 0.00 53 1007.1
20260901061652 12 140 0.0 0.0 0.00 0.00 0.00 55 1007.2
20260901061152 12 147 0.0 0.0 0.00 0.00 0.00 54 1007.4
20260901060647 12 131 0.0 0.0 0.00 0.00 0.00 52 1007.3
20260901060142 12 109 0.0 1.6 0.00 0.00 0.00 51 1007.5
20260901055638 12 151 0.0 0.0 0.00 0.00 0.00 52 1007.4
20260901055134 13 154 0.0 0.0 0.00 0.00 0.00 50 1007.4
20260901054631 13 139 0.0 0.0 0.00 0.00 0.00 50 1007.4
20260901054127 13 148 1.6 1.6 0.00 0.00 0.00 49 1007.3
20260901053623 13 128 0.0 0.0 0.00 0.00 0.00 49 1007.4
20260901053118 13 138 0.0 0.0 0.00 0.00 0.00 47 1007.2
20260901052618 13 141 0.0 0.0 0.00 0.00 0.00 47 1007.3
20260901052114 13 151 0.0 0.0 0.00 0.00 0.00 48 1007.7
20260901051613 14 149 0.0 0.0 0.00 0.00 0.00 49 1007.5
20260901051112 14 133 0.0 0.0 0.00 0.00 0.00 48 1007.4
20260901050608 14 147 1.6 1.6 0.00 0.00 0.00 48 1007.4
20260901045557 15 156 0.0 0.0 0.00 0.00 0.00 40 1007.4
20260901045052 15 150 0.0 0.0 0.00 0.00 0.00 39 1007.4
20260901044548 15 127 0.0 0.0 0.00 0.00 0.00 39 1007.5
20260901044044 16 124 0.0 0.0 0.00 0.00 0.00 38 1007.5
20260901043539 16 118 0.0 0.0 0.00 0.00 0.00 37 1007.5
20260901043035 16 169 1.6 1.6 0.00 0.00 0.00 37 1007.4
20260901042534 16 105 1.6 1.6 0.00 0.00 0.00 38 1007.7
20260901042029 16 175 1.6 1.6 0.00 0.00 0.00 38 1007.5
20260901041525 16 148 0.0 0.0 0.00 0.00 0.00 38 1007.8
20260901041019 17 128 0.0 0.0 0.00 0.00 0.00 38 1007.8
20260901040513 17 117 0.0 0.0 0.00 0.00 0.00 36 1007.8
20260901040008 17 123 0.0 0.0 0.00 0.00 0.00 35 1007.3
20260901035506 17 124 0.0 0.0 0.00 0.00 0.00 35 1007.8
20260901035005 17 113 1.6 1.6 0.00 0.00 0.00 34 1007.8
20260901034504 17 171 1.6 1.6 0.00 0.00 0.00 34 1007.5
20260901033959 17 158 3.2 3.2 0.00 0.00 0.00 33 1007.8
20260901033458 17 33 6.4 6.4 0.00 0.00 0.00 34 1007.5
20260901032957 18 114 0.0 0.0 0.00 0.00 0.00 34 1007.5
20260901032452 18 105 0.0 0.0 0.00 0.00 0.00 34 1007.2
20260901031947 18 143 0.0 0.0 0.00 0.00 0.00 34 1007.3
20260901031442 18 143 0.0 0.0 0.00 0.00 0.00 36 1007.1
20260901030941 19 143 0.0 0.0 0.00 0.00 0.00 33 1007.1
20260901030437 20 141 0.0 0.0 0.00 0.00 0.00 33 1007.0
20260901025936 20 141 0.0 0.0 0.00 0.00 0.00 32 1007.1
20260901025432 20 141 0.0 0.0 0.00 0.00 0.00 32 1006.9
20260901024931 20 141 0.0 0.0 0.00 0.00 0.00 31 1007.0
20260901024426 21 141 0.0 0.0 0.00 0.00 0.00 29 1006.8
20260901023924 21 147 0.0 0.0 0.00 0.00 0.00 28 1006.8
20260901023419 21 128 0.0 0.0 0.00 0.00 0.00 28 1006.9
20260901022915 21 116 0.0 0.0 0.00 0.00 0.00 28 1006.8
20260901022410 22 122 0.0 0.0 0.00 0.00 0.00 27 1006.8
20260901021905 22 140 0.0 0.0 0.00 0.00 0.00 27 1006.9
20260901021401 22 140 0.0 0.0 0.00 0.00 0.00 28 1007.1
20260901020855 23 133 0.0 0.0 0.00 0.00 0.00 27 1007.0
20260901020351 24 105 1.6 1.6 0.00 0.00 0.00 27 1007.1
20260901015850 25 188 1.6 1.6 0.00 0.00 0.00 27 1007.0
20260901015347 26 160 0.0 0.0 0.00 0.00 0.00 28 1006.9
20260901014846 26 145 0.0 0.0 0.00 0.00 0.00 27 1006.9
20260901014342 27 149 0.0 0.0 0.00 0.00 0.00 25 1007.2
20260901013837 28 168 0.0 0.0 0.00 0.00 0.00 23 1007.1
20260901013333 28 167 1.6 1.6 0.00 0.00 0.00 20 1007.0
20260901012828 29 137 0.0 0.0 0.00 0.00 0.00 18 1007.2
20260901012323 30 147 0.0 0.0 0.00 0.00 0.00 18 1007.2
20260901011819 29 166 1.6 1.6 0.00 0.00 0.00 16 1007.0
20260901011314 30 161 0.0 1.6 0.00 0.00 0.00 16 1007.0
20260901010808 30 101 3.2 3.2 0.00 0.00 0.00 17 1007.1
20260901010302 30 144 0.0 0.0 0.00 0.00 0.00 15 1007.2
20260901005801 30 151 0.0 0.0 0.00 0.00 0.00 15 1007.1
20260901005256 30 162 1.6 3.2 0.00 0.00 0.00 16 1007.3
20260901004750 31 151 0.0 1.6 0.00 0.00 0.00 16 1007.1
20260901004245 31 146 0.0 0.0 0.00 0.00 0.00 16 1007.3
20260901003744 30 141 0.0 0.0 0.00 0.00 0.00 17 1007.3
20260901003239 30 143 0.0 0.0 0.00 0.00 0.00 15 1007.2
20260901002733 30 155 0.0 0.0 0.00 0.00 0.00 16 1007.7
20260901002228 30 154 0.0 1.6 0.00 0.00 0.00 16 1007.3
20260901001723 30 146 0.0 0.0 0.00 0.00 0.00 16 1007.5
20260901001219 30 150 4.8 4.8 0.00 0.00 0.00 16 1007.4
20260901000714 30 148 0.0 0.0 0.00 0.00 0.00 16 1007.7
20260901000211 30 155 0.0 0.0 0.00 0.00 0.00 16 1007.9
20260831235708 30 156 0.0 1.6 0.00 0.00 0.00 16 1007.5
20260831235204 30 181 1.6 1.6 0.00 0.00 0.00 16 1007.8
20260831234703 30 161 0.0 0.0 0.00 0.00 0.00 16 1007.7
20260831234158 30 196 3.2 4.8 0.00 0.00 0.00 16 1008.0
20260831233653 30 222 3.2 4.8 0.00 0.00 0.00 16 1007.8
20260831233149 30 216 6.4 6.4 0.00 0.00 0.00 16 1007.9
20260831232648 30 137 0.0 0.0 0.00 0.00 0.00 17 1008.0
20260831232145 30 258 1.6 1.6 0.00 0.00 0.00 17 1008.1
20260831231641 30 172 1.6 1.6 0.00 0.00 0.00 17 1008.0
20260831231137 30 328 4.8 4.8 0.00 0.00 0.00 16 1008.1
20260831230632 30 209 1.6 3.2 0.00 0.00 0.00 16 1008.1
20260831230127 30 177 1.6 1.6 0.00 0.00 0.00 16 1008.2
20260831225627 30 241 3.2 3.2 0.00 0.00 0.00 17 1008.4
20260831225122 30 231 1.6 1.6 0.00 0.00 0.00 18 1008.4
20260831224617 30 159 1.6 1.6 0.00 0.00 0.00 17 1008.4
20260831224113 30 166 3.2 4.8 0.00 0.00 0.00 17 1008.5
20260831223603 30 194 3.2 3.2 0.00 0.00 0.00 17 1008.6
20260831223058 30 261 6.4 9.7 0.00 0.00 0.00 18 1008.5
20260831222554 29 172 6.4 6.4 0.00 0.00 0.00 17 1008.8
20260831222048 30 206 6.4 9.7 0.00 0.00 0.00 18 1008.7
20260831221539 30 139 4.8 6.4 0.00 0.00 0.00 17 1009.0
20260831221038 30 172 1.6 1.6 0.00 0.00 0.00 18 1008.8
20260831220533 30 147 6.4 6.4 0.00 0.00 0.00 18 1009.0
20260831220029 30 230 3.2 4.8 0.00 0.00 0.00 18 1009.3
20260831215525 30 181 0.0 1.6 0.00 0.00 0.00 18 1009.3
20260831215020 30 176 6.4 11.3 0.00 0.00 0.00 17 1009.3
20260831214518 30 154 1.6 1.6 0.00 0.00 0.00 19 1009.2
20260831214013 29 218 6.4 6.4 0.00 0.00 0.00 18 1009.6
20260831213510 29 146 6.4 6.4 0.00 0.00 0.00 19 1009.6
20260831213010 29 112 1.6 4.8 0.00 0.00 0.00 20 1009.5
20260831212506 29 156 8.0 11.3 0.00 0.00 0.00 19 1009.8
20260831212001 29 142 1.6 1.6 0.00 0.00 0.00 20 1009.7
20260831211456 28 148 1.6 1.6 0.00 0.00 0.00 18 1009.7
20260831210955 29 178 3.2 9.7 0.00 0.00 0.00 20 1009.7
20260831210450 28 146 8.0 12.9 0.00 0.00 0.00 20 1009.7
20260831205946 27 165 9.7 12.9 0.00 0.00 0.00 21 1009.8
20260831205441 27 113 8.0 9.7 0.00 0.00 0.00 21 1009.9
20260831204937 28 181 17.7 22.5 0.00 0.00 0.00 21 1010.0
20260831204436 28 180 4.8 9.7 0.00 0.00 0.00 21 1010.1
20260831203930 28 170 8.0 11.3 0.00 0.00 0.00 22 1010.0
20260831203424 28 109 3.2 4.8 0.00 0.00 0.00 20 1010.4
20260831202922 28 137 3.2 4.8 0.00 0.00 0.00 21 1010.5
20260831202418 27 189 4.8 6.4 0.00 0.00 0.00 21 1010.4
20260831201912 27 184 16.1 20.9 0.00 0.00 0.00 21 1010.6
20260831201410 27 136 3.2 3.2 0.00 0.00 0.00 22 1010.7
20260831200907 27 191 3.2 3.2 0.00 0.00 0.00 21 1010.7
20260831200402 27 141 0.0 1.6 0.00 0.00 0.00 22 1011.1
20260831195856 27 170 1.6 1.6 0.00 0.00 0.00 23 1010.7
20260831195352 27 133 0.0 1.6 0.00 0.00 0.00 23 1010.7
20260831194847 26 160 6.4 6.4 0.00 0.00 0.00 23 1011.1
20260831194343 25 145 3.2 4.8 0.00 0.00 0.00 24 1011.1
20260831193842 25 178 4.8 6.4 0.00 0.00 0.00 25 1011.3
20260831193337 25 139 6.4 9.7 0.00 0.00 0.00 26 1011.4
20260831192832 25 207 6.4 6.4 0.00 0.00 0.00 26 1011.4
20260831192332 25 168 1.6 3.2 0.00 0.00 0.00 27 1011.6
20260831191828 25 151 1.6 1.6 0.00 0.00 0.00 27 1011.8
20260831191324 24 159 3.2 6.4 0.00 0.00 0.00 28 1011.9
20260831190820 24 172 9.7 11.3 0.00 0.00 0.00 27 1011.9
20260831190319 24 157 3.2 4.8 0.00 0.00 0.00 27 1011.9
20260831185819 24 138 8.0 9.7 0.00 0.00 0.00 27 1012.1
20260831185315 24 140 3.2 3.2 0.00 0.00 0.00 28 1012.1
20260831184814 24 156 6.4 6.4 0.00 0.00 0.00 28 1012.1